This is the latest recevied weather packets stored in our database for station/object DG7VM-13. If no packets are shown the sender has not sent any weather packets the latest 10 day(s).
| Time | Temp. | Humidity | Pressure | Rain* | Wind** | Luminosity | Snow |
|---|---|---|---|---|---|---|---|
| 1788696433 | 26.11° C | 40% | - | - | - | - | - |
| 1788696148 | 26.11° C | 38% | 1023 hPa | - | - | - | - |
| 1788695832 | 26.11° C | 39% | 1023 hPa | - | - | - | - |
| 1788695540 | 26.11° C | 41% | 1023 hPa | - | - | - | - |
| 1788695233 | 25.56° C | 40% | 1023 hPa | - | - | - | - |
| 1788694933 | 26.11° C | 39% | 1023 hPa | - | - | - | - |
| 1788694633 | 26.11° C | 41% | 1023 hPa | - | - | - | - |
| 1788694342 | 25.56° C | 42% | 1023 hPa | - | - | - | - |
| 1788694033 | 25.56° C | 40% | 1024 hPa | - | - | - | - |
| 1788693733 | 25.56° C | 42% | 1024 hPa | - | - | - | - |
| 1788693460 | 25.56° C | 41% | 1024 hPa | - | - | - | - |
| 1788693133 | 25° C | 42% | 1024 hPa | - | - | - | - |
| 1788692846 | 25° C | 46% | 1024 hPa | - | - | - | - |
| 1788692534 | 24.44° C | 43% | 1024 hPa | - | - | - | - |
| 1788692254 | 24.44° C | 43% | 1024 hPa | - | - | - | - |
| 1788691953 | 24.44° C | 46% | 1024 hPa | - | - | - | - |
| 1788691641 | 23.89° C | 44% | 1024 hPa | - | - | - | - |
| 1788691343 | 23.89° C | 44% | 1024 hPa | - | - | - | - |
| 1788691032 | 23.89° C | 45% | 1024 hPa | - | - | - | - |
| 1788690733 | 23.33° C | 46% | 1024 hPa | - | - | - | - |
| 1788690433 | 23.33° C | 51% | 1024 hPa | - | - | - | - |
| 1788690134 | 23.33° C | 54% | 1024 hPa | - | - | - | - |
| 1788689833 | 22.78° C | 55% | 1024 hPa | - | - | - | - |
| 1788689533 | 22.22° C | 60% | 1025 hPa | - | - | - | - |
| 1788689244 | 21.67° C | 60% | 1025 hPa | - | - | - | - |
* Rain since midnight (hover to see other rain measurements)
** Current wind speed in m/s (hover to see current wind gust speed)